﻿#観測日時,平均風速,平均風向,最大風速,最大風速発生風向,最大瞬間風速,最大瞬間風速発生風向
#(年月日),(m/s)   ,(16方位),(m/s)   ,(16方位)        ,(m/s)       ,(16方位)            
2020/4/18 0:01,3.2,3,3.2,3,4.7,4
2020/4/18 0:02,3.1,3,3.2,3,3.7,3
2020/4/18 0:03,3.1,3,3.1,3,4.4,3
2020/4/18 0:04,3,3,3,3,4.9,2
2020/4/18 0:05,3.2,3,3.2,3,4.9,3
2020/4/18 0:06,3.2,3,3.2,3,4.9,5
2020/4/18 0:07,3.1,3,3.2,3,4.8,4
2020/4/18 0:08,3.1,3,3.1,3,4.3,3
2020/4/18 0:09,3,3,3.1,3,3.6,3
2020/4/18 0:10,2.9,3,3,3,3.9,2
2020/4/18 0:11,2.8,3,2.9,3,4.3,3
2020/4/18 0:12,2.8,3,2.8,3,4.2,3
2020/4/18 0:13,2.9,3,2.9,3,4.2,3
2020/4/18 0:14,2.9,3,2.9,3,4.1,3
2020/4/18 0:15,2.8,3,2.9,3,4.4,3
2020/4/18 0:16,2.7,3,2.8,3,3.2,2
2020/4/18 0:17,2.6,3,2.7,3,3.8,3
2020/4/18 0:18,2.6,3,2.6,3,4.2,3
2020/4/18 0:19,2.5,3,2.6,3,4.4,3
2020/4/18 0:20,2.6,3,2.6,3,6.2,3
2020/4/18 0:21,2.8,3,2.8,3,5.5,3
2020/4/18 0:22,2.8,3,2.8,3,4.2,4
2020/4/18 0:23,2.9,3,2.9,3,5.6,5
2020/4/18 0:24,3,3,3,3,6,3
2020/4/18 0:25,3.1,3,3.1,3,6.1,3
2020/4/18 0:26,3.3,3,3.3,3,4.7,4
2020/4/18 0:27,3.3,3,3.3,3,5,5
2020/4/18 0:28,3.5,3,3.5,3,4.7,4
2020/4/18 0:29,3.6,3,3.6,3,5.6,3
2020/4/18 0:30,3.6,4,3.6,3,5.7,4
2020/4/18 0:31,3.4,4,3.5,3,3.7,3
2020/4/18 0:32,3.4,3,3.4,3,4.7,3
2020/4/18 0:33,3.4,3,3.4,3,5.6,3
2020/4/18 0:34,3.4,3,3.4,3,6.4,3
2020/4/18 0:35,3.2,3,3.3,3,5,4
2020/4/18 0:36,3.3,3,3.3,3,5.8,3
2020/4/18 0:37,3.4,3,3.4,3,6.2,3
2020/4/18 0:38,3.4,3,3.4,3,5.5,4
2020/4/18 0:39,3.4,3,3.4,3,4.9,1
2020/4/18 0:40,3.3,3,3.3,4,4.5,3
2020/4/18 0:41,3.3,3,3.3,4,4.7,3
2020/4/18 0:42,3.3,3,3.3,3,4.9,3
2020/4/18 0:43,3.1,3,3.3,3,3.7,3
2020/4/18 0:44,3.1,3,3.2,3,5.1,4
2020/4/18 0:45,3.2,3,3.2,3,5,3
2020/4/18 0:46,3,3,3.2,3,4.7,3
2020/4/18 0:47,2.8,3,3,3,3.8,3
2020/4/18 0:48,2.8,3,2.8,3,4.7,2
2020/4/18 0:49,2.8,3,2.9,3,5,3
2020/4/18 0:50,3,3,3,3,6.4,3
2020/4/18 0:51,3,3,3,3,5.7,2
2020/4/18 0:52,3,3,3,3,4.9,2
2020/4/18 0:53,3.1,3,3.1,3,5.1,1
2020/4/18 0:54,3,2,3.1,3,5.7,1
2020/4/18 0:55,2.9,2,3,3,4.8,3
2020/4/18 0:56,2.9,2,2.9,3,3.8,3
2020/4/18 0:57,2.8,2,2.9,3,3.9,3
2020/4/18 0:58,2.8,2,2.8,3,4.1,3
2020/4/18 0:59,2.7,2,2.8,3,3.8,2
2020/4/18 1:00,2.5,2,2.7,3,3.7,2
2020/4/18 1:01,2.4,2,2.5,3,3.5,2
2020/4/18 1:02,2.5,2,2.5,3,5.7,4
2020/4/18 1:03,2.6,2,2.6,3,5.4,3
2020/4/18 1:04,2.8,2,2.8,2,5.8,3
2020/4/18 1:05,2.9,3,2.9,2,5.4,3
2020/4/18 1:06,3,3,3,3,4.3,3
2020/4/18 1:07,3.1,3,3.1,3,5.4,3
2020/4/18 1:08,3.4,3,3.4,3,6.5,3
2020/4/18 1:09,3.5,3,3.5,3,6.1,3
2020/4/18 1:10,3.6,3,3.6,3,5.4,2
2020/4/18 1:11,3.8,3,3.8,3,6.4,3
2020/4/18 1:12,3.8,3,3.9,3,5.8,3
2020/4/18 1:13,3.7,3,3.8,3,4.7,3
2020/4/18 1:14,3.4,3,3.7,3,4.1,3
2020/4/18 1:15,3.3,3,3.4,3,4.7,1
2020/4/18 1:16,3.4,3,3.4,3,6.1,3
2020/4/18 1:17,3.4,3,3.4,3,4.7,3
2020/4/18 1:18,3.2,3,3.4,3,3.7,4
2020/4/18 1:19,3.1,3,3.2,3,4.8,2
2020/4/18 1:20,3.2,3,3.2,3,5.1,3
2020/4/18 1:21,3,3,3.2,3,4.1,3
2020/4/18 1:22,3,3,3,3,4.1,3
2020/4/18 1:23,2.9,3,3,3,3.3,2
2020/4/18 1:24,3,3,3,3,4.2,3
2020/4/18 1:25,3,3,3,3,4.4,4
2020/4/18 1:26,2.9,3,3,3,4.7,2
2020/4/18 1:27,2.9,3,2.9,3,4.3,3
2020/4/18 1:28,2.8,3,2.9,3,3.7,3
2020/4/18 1:29,2.8,3,2.8,3,5,3
2020/4/18 1:30,2.7,3,2.8,3,4.5,3
2020/4/18 1:31,2.6,3,2.6,3,4.1,3
2020/4/18 1:32,2.6,3,2.7,3,4.2,3
2020/4/18 1:33,2.7,3,2.7,3,3.8,2
2020/4/18 1:34,2.8,3,2.8,3,5.5,2
2020/4/18 1:35,2.8,2,2.8,3,4.8,3
2020/4/18 1:36,2.7,2,2.8,3,3.2,3
2020/4/18 1:37,2.6,2,2.7,3,3.7,2
2020/4/18 1:38,2.8,2,2.8,3,4.1,3
2020/4/18 1:39,2.6,2,2.8,3,3.9,1
2020/4/18 1:40,2.7,2,2.7,3,3.9,2
2020/4/18 1:41,2.6,2,2.7,3,3.6,2
2020/4/18 1:42,2.5,2,2.6,3,3.7,2
2020/4/18 1:43,2.4,2,2.5,3,3.1,2
2020/4/18 1:44,2.2,2,2.4,3,3.2,2
2020/4/18 1:45,2.2,2,2.2,2,4.2,3
2020/4/18 1:46,2.2,2,2.2,2,3.7,3
2020/4/18 1:47,2.2,2,2.2,2,3.2,2
2020/4/18 1:48,2,2,2.2,2,3.6,2
2020/4/18 1:49,2.1,2,2.1,2,4.5,2
2020/4/18 1:50,2.1,2,2.2,2,3.8,3
2020/4/18 1:51,2.2,2,2.2,2,4.2,3
2020/4/18 1:52,2.3,2,2.3,2,3.6,3
2020/4/18 1:53,2.2,2,2.3,2,1.4,2
2020/4/18 1:54,2.3,2,2.3,2,5.1,2
2020/4/18 1:55,2.3,2,2.4,2,5.2,3
2020/4/18 1:56,2.4,2,2.4,2,3.9,2
2020/4/18 1:57,2.4,2,2.4,2,4.7,2
2020/4/18 1:58,2.5,2,2.5,2,4.7,2
2020/4/18 1:59,2.5,2,2.5,2,3.6,3
2020/4/18 2:00,2.4,2,2.5,2,4.2,3
2020/4/18 2:01,2.4,2,2.4,2,4.9,1
2020/4/18 2:02,2.5,2,2.5,2,4.5,1
2020/4/18 2:03,2.6,2,2.6,2,4.5,2
2020/4/18 2:04,2.6,2,2.6,2,4.2,2
2020/4/18 2:05,2.4,2,2.6,2,2.7,2
2020/4/18 2:06,2.3,2,2.4,2,3.9,4
2020/4/18 2:07,2.4,2,2.4,2,3.6,3
2020/4/18 2:08,2.4,2,2.4,2,4.1,4
2020/4/18 2:09,2.3,2,2.4,2,3.2,3
2020/4/18 2:10,2.4,2,2.4,2,3.7,3
2020/4/18 2:11,2.3,2,2.4,2,3.9,2
2020/4/18 2:12,2.4,2,2.4,2,4.8,3
2020/4/18 2:13,2.4,2,2.4,2,4.3,2
2020/4/18 2:14,2.5,2,2.5,2,4.2,3
2020/4/18 2:15,2.6,2,2.6,2,5.5,2
2020/4/18 2:16,2.7,2,2.7,2,3.1,2
2020/4/18 2:17,2.7,2,2.7,2,4.9,3
2020/4/18 2:18,2.8,2,2.8,2,4.1,3
2020/4/18 2:19,2.7,2,2.8,2,3.5,2
2020/4/18 2:20,2.7,2,2.7,2,3.1,2
2020/4/18 2:21,2.7,2,2.7,2,4.3,2
2020/4/18 2:22,2.6,2,2.7,2,4.9,3
2020/4/18 2:23,2.6,2,2.7,2,4.9,4
2020/4/18 2:24,2.6,2,2.7,2,4.5,2
2020/4/18 2:25,2.6,2,2.6,2,5.1,3
2020/4/18 2:26,2.7,2,2.7,2,3.7,3
2020/4/18 2:27,2.6,2,2.7,2,3.8,3
2020/4/18 2:28,2.6,2,2.6,2,4.1,1
2020/4/18 2:29,2.6,3,2.6,2,3.8,3
2020/4/18 2:30,2.7,3,2.7,2,3.8,3
2020/4/18 2:31,2.6,3,2.7,2,3.9,3
2020/4/18 2:32,2.5,3,2.6,2,3.2,3
2020/4/18 2:33,2.5,3,2.5,2,3.2,3
2020/4/18 2:34,2.3,3,2.4,2,2.7,16
2020/4/18 2:35,2.2,3,2.2,2,3.9,3
2020/4/18 2:36,2.3,3,2.3,2,4.2,4
2020/4/18 2:37,2.3,3,2.3,3,3.6,3
2020/4/18 2:38,2.1,3,2.2,3,2.7,2
2020/4/18 2:39,2.1,3,2.2,3,4.1,3
2020/4/18 2:40,2.2,3,2.2,3,4.4,2
2020/4/18 2:41,2.2,3,2.2,3,3.1,4
2020/4/18 2:42,2.2,3,2.2,3,2.2,3
2020/4/18 2:43,2.1,3,2.2,3,4.4,3
2020/4/18 2:44,2.3,3,2.3,3,3.3,4
2020/4/18 2:45,2.3,3,2.3,3,3.9,3
2020/4/18 2:46,2.2,3,2.3,3,3.8,3
2020/4/18 2:47,2.2,3,2.2,3,3.6,3
2020/4/18 2:48,2.3,3,2.3,3,4.2,3
2020/4/18 2:49,2.2,3,2.3,3,3.3,3
2020/4/18 2:50,2.2,3,2.2,3,3.5,3
2020/4/18 2:51,2.1,3,2.1,3,3.1,3
2020/4/18 2:52,2.1,3,2.1,3,2.4,3
2020/4/18 2:53,2.1,3,2.2,3,2.2,3
2020/4/18 2:54,2,3,2.1,3,1.9,4
2020/4/18 2:55,1.8,3,2,3,1.9,4
2020/4/18 2:56,1.7,3,1.8,3,2.5,5
2020/4/18 2:57,1.6,4,1.6,3,1.6,4
2020/4/18 2:58,1.6,4,1.6,3,2.7,2
2020/4/18 2:59,1.6,3,1.6,3,3.1,2
2020/4/18 3:00,1.6,3,1.6,3,3,2
2020/4/18 3:01,1.5,3,1.6,3,2.4,4
2020/4/18 3:02,1.5,3,1.5,3,1.9,1
2020/4/18 3:03,1.5,3,1.5,3,4.1,2
2020/4/18 3:04,1.6,3,1.6,3,3.1,1
2020/4/18 3:05,1.7,2,1.7,3,3.2,3
2020/4/18 3:06,1.7,2,1.7,2,2.9,2
2020/4/18 3:07,1.8,2,1.8,2,3.1,1
2020/4/18 3:08,1.6,2,1.7,2,1.1,2
2020/4/18 3:09,1.5,2,1.6,2,2,16
2020/4/18 3:10,1.4,2,1.5,2,1.8,16
2020/4/18 3:11,1.3,2,1.3,2,1.8,15
2020/4/18 3:12,1.4,2,1.4,2,2.1,1
2020/4/18 3:13,1.3,2,1.4,2,2.2,16
2020/4/18 3:14,1.3,1,1.3,2,2.6,16
2020/4/18 3:15,1.3,1,1.3,2,2.4,16
2020/4/18 3:16,1.3,1,1.3,2,2.7,1
2020/4/18 3:17,1.3,1,1.3,2,2.6,16
2020/4/18 3:18,1.4,1,1.4,2,2.4,16
2020/4/18 3:19,1.5,16,1.5,2,3.2,16
2020/4/18 3:20,1.5,16,1.5,16,2.1,16
2020/4/18 3:21,1.6,16,1.6,16,2.1,13
2020/4/18 3:22,1.6,16,1.6,16,3.1,16
2020/4/18 3:23,1.6,16,1.7,16,2.5,15
2020/4/18 3:24,1.5,16,1.6,16,1.1,15
2020/4/18 3:25,1.4,16,1.5,16,1.1,16
2020/4/18 3:26,1.3,16,1.4,16,1.4,16
2020/4/18 3:27,1.1,15,1.3,16,0.8,14
2020/4/18 3:28,1,15,1.1,16,1.1,13
2020/4/18 3:29,0.9,15,1.1,16,1.1,12
2020/4/18 3:30,0.8,14,0.9,16,0.6,13
2020/4/18 3:31,0.7,14,0.8,16,0.8,14
2020/4/18 3:32,0.6,14,0.7,16,0.9,15
2020/4/18 3:33,0.6,14,0.6,16,1.9,15
2020/4/18 3:34,0.7,14,0.7,16,2,15
2020/4/18 3:35,0.8,14,0.8,16,2.9,16
2020/4/18 3:36,1,14,1,16,3.5,16
2020/4/18 3:37,1.2,14,1.2,14,3.5,15
2020/4/18 3:38,1.4,15,1.4,14,3.9,16
2020/4/18 3:39,1.6,15,1.6,15,3.5,15
2020/4/18 3:40,1.7,15,1.7,15,3.2,16
2020/4/18 3:41,1.8,15,1.8,15,2.2,16
2020/4/18 3:42,1.9,15,1.9,15,2.5,16
2020/4/18 3:43,1.9,15,1.9,15,2,16
2020/4/18 3:44,1.9,16,2,15,1.9,16
2020/4/18 3:45,1.9,16,1.9,15,1.8,16
2020/4/18 3:46,1.7,16,1.9,15,1.4,16
2020/4/18 3:47,1.5,16,1.7,15,0.8,1
2020/4/18 3:48,1.3,16,1.5,15,1.4,1
2020/4/18 3:49,1.2,16,1.3,15,1,2
2020/4/18 3:50,1,16,1.2,15,0.8,3
2020/4/18 3:51,0.9,1,1,15,0.8,3
2020/4/18 3:52,0.9,1,0.9,15,1.1,4
2020/4/18 3:53,0.8,2,0.9,15,1.6,3
2020/4/18 3:54,0.7,2,0.8,16,1.6,4
2020/4/18 3:55,0.6,3,0.7,16,1,4
2020/4/18 3:56,0.5,3,0.6,16,0.9,2
2020/4/18 3:57,0.6,3,0.6,16,2,3
2020/4/18 3:58,0.7,3,0.7,16,2.5,3
2020/4/18 3:59,0.8,3,0.8,16,2.7,3
2020/4/18 4:00,1,3,1,1,2.5,2
2020/4/18 4:01,1.1,3,1.1,3,3.2,3
2020/4/18 4:02,1.3,3,1.3,3,2.9,3
2020/4/18 4:03,1.6,3,1.6,3,3.5,3
2020/4/18 4:04,1.8,3,1.8,3,3.6,3
2020/4/18 4:05,2.1,3,2.1,3,3.6,3
2020/4/18 4:06,2.3,3,2.3,3,3.3,4
2020/4/18 4:07,2.4,3,2.4,3,2.7,3
2020/4/18 4:08,2.4,3,2.4,3,2.9,2
2020/4/18 4:09,2.3,3,2.4,3,2,3
2020/4/18 4:10,2.3,3,2.3,3,3,3
2020/4/18 4:11,2.2,3,2.3,3,2.1,2
2020/4/18 4:12,2.1,3,2.2,3,1.9,2
2020/4/18 4:13,1.9,3,2.1,3,1.5,4
2020/4/18 4:14,1.6,3,1.8,3,0.1,3
2020/4/18 4:15,1.4,3,1.6,3,2,12
2020/4/18 4:16,1.3,3,1.4,3,3.3,11
2020/4/18 4:17,1.3,2,1.3,3,2.6,11
2020/4/18 4:18,1.3,2,1.3,3,2.4,12
2020/4/18 4:19,1.2,16,1.3,3,2,12
2020/4/18 4:20,1.2,15,1.2,3,2.7,15
2020/4/18 4:21,1.1,14,1.2,3,1.9,16
2020/4/18 4:22,1,13,1.1,3,0.6,3
2020/4/18 4:23,1,12,1,3,1.5,10
2020/4/18 4:24,1.2,12,1.2,3,2.7,11
2020/4/18 4:25,1.5,12,1.5,12,4.4,11
2020/4/18 4:26,1.5,11,1.5,12,3.9,10
2020/4/18 4:27,1.7,11,1.7,11,4.8,11
2020/4/18 4:28,1.8,11,1.8,11,4.7,10
2020/4/18 4:29,1.9,11,1.9,11,3.2,9
2020/4/18 4:30,1.8,11,1.9,11,1.6,12
2020/4/18 4:31,1.8,10,1.8,11,1,12
2020/4/18 4:32,1.9,11,1.9,11,2.7,11
2020/4/18 4:33,2,11,2,11,2.1,12
2020/4/18 4:34,2,11,2,11,3.2,13
2020/4/18 4:35,1.7,11,1.9,11,1.4,14
2020/4/18 4:36,1.4,12,1.7,11,0.6,2
2020/4/18 4:37,1.2,12,1.4,11,0.9,16
2020/4/18 4:38,0.9,12,1.1,11,1,10
2020/4/18 4:39,0.9,12,0.9,11,1.6,2
2020/4/18 4:40,0.9,13,0.9,11,2.5,2
2020/4/18 4:41,0.9,13,0.9,11,1.3,3
2020/4/18 4:42,0.8,13,0.9,11,1.9,7
2020/4/18 4:43,0.7,16,0.8,11,0.4,13
2020/4/18 4:44,0.6,6,0.7,11,1.3,9
2020/4/18 4:45,0.6,7,0.6,11,1.3,9
2020/4/18 4:46,0.6,8,0.6,12,1,10
2020/4/18 4:47,0.6,7,0.6,12,0.8,8
2020/4/18 4:48,0.6,8,0.6,12,0.8,9
2020/4/18 4:49,0.5,9,0.6,12,0.8,10
2020/4/18 4:50,0.4,9,0.5,13,0.6,10
2020/4/18 4:51,0.4,10,0.4,13,0.6,13
2020/4/18 4:52,0.4,10,0.4,12,0.6,12
2020/4/18 4:53,0.4,10,0.4,1,0.3,10
2020/4/18 4:54,0.3,10,0.4,6,0.1,12
2020/4/18 4:55,0.3,11,0.3,7,0.1,12
2020/4/18 4:56,0.2,10,0.3,8,0.1,4
2020/4/18 4:57,0.3,10,0.3,7,0.9,4
2020/4/18 4:58,0.3,10,0.3,8,1,3
2020/4/18 4:59,0.3,10,0.3,9,0.8,3
2020/4/18 5:00,0.3,7,0.3,9,1.3,2
2020/4/18 5:01,0.4,4,0.4,10,1.4,2
2020/4/18 5:02,0.4,3,0.4,10,1.3,2
2020/4/18 5:03,0.5,3,0.5,3,1.6,2
2020/4/18 5:04,0.7,3,0.7,3,1.9,2
2020/4/18 5:05,0.8,3,0.8,3,2.4,3
2020/4/18 5:06,1,3,1,3,2.2,3
2020/4/18 5:07,1.1,3,1.1,3,2,5
2020/4/18 5:08,1.1,3,1.1,3,1.5,4
2020/4/18 5:09,1.1,3,1.1,3,1.5,5
2020/4/18 5:10,1.1,4,1.1,3,1.6,4
2020/4/18 5:11,1.1,4,1.1,3,1.8,5
2020/4/18 5:12,1.2,4,1.2,4,1.4,5
2020/4/18 5:13,1.2,4,1.2,4,2.1,3
2020/4/18 5:14,1.2,4,1.2,4,2.1,3
2020/4/18 5:15,1.2,4,1.2,4,2.5,3
2020/4/18 5:16,1.1,4,1.2,4,1.6,3
2020/4/18 5:17,1,4,1.1,4,0.8,2
2020/4/18 5:18,0.9,3,0.9,4,0.4,16
2020/4/18 5:19,0.9,2,0.9,4,1,1
2020/4/18 5:20,0.9,2,0.9,4,0.9,2
2020/4/18 5:21,0.8,2,0.8,4,0.5,2
2020/4/18 5:22,0.7,2,0.8,4,0.1,6
2020/4/18 5:23,0.5,2,0.7,4,0.1,10
2020/4/18 5:24,0.4,1,0.5,4,0.1,10
2020/4/18 5:25,0.3,16,0.4,4,0.5,16
2020/4/18 5:26,0.2,16,0.3,4,1.3,16
2020/4/18 5:27,0.3,16,0.3,3,1.3,16
2020/4/18 5:28,0.4,16,0.4,3,1,16
2020/4/18 5:29,0.3,16,0.4,2,0.9,16
2020/4/18 5:30,0.3,15,0.3,2,1,16
2020/4/18 5:31,0.4,15,0.4,2,1.4,16
2020/4/18 5:32,0.5,15,0.5,2,1.6,16
2020/4/18 5:33,0.7,16,0.7,16,2.1,16
2020/4/18 5:34,0.8,16,0.8,16,1.8,1
2020/4/18 5:35,0.8,16,0.8,16,1,1
2020/4/18 5:36,0.8,16,0.8,16,1,16
2020/4/18 5:37,0.8,16,0.8,16,0.8,14
2020/4/18 5:38,0.8,16,0.8,16,0.6,15
2020/4/18 5:39,0.7,16,0.8,16,0.5,15
2020/4/18 5:40,0.7,16,0.7,16,0.3,8
2020/4/18 5:41,0.6,16,0.7,16,0.9,8
2020/4/18 5:42,0.5,15,0.6,16,0.8,8
2020/4/18 5:43,0.4,15,0.5,16,0.4,8
2020/4/18 5:44,0.3,14,0.4,16,0,6
2020/4/18 5:45,0.2,10,0.3,16,0.9,10
2020/4/18 5:46,0.2,9,0.2,16,0.9,10
2020/4/18 5:47,0.2,8,0.3,16,0.6,9
2020/4/18 5:48,0.2,9,0.2,16,0.3,11
2020/4/18 5:49,0.2,8,0.2,16,0.6,1
2020/4/18 5:50,0.2,8,0.2,16,0.8,1
2020/4/18 5:51,0.3,8,0.3,16,0.6,15
2020/4/18 5:52,0.3,13,0.3,15,0.8,14
2020/4/18 5:53,0.3,14,0.3,14,0.8,14
2020/4/18 5:54,0.3,14,0.3,14,0.5,14
2020/4/18 5:55,0.4,15,0.4,14,0.8,4
2020/4/18 5:56,0.4,16,0.4,14,0.8,4
2020/4/18 5:57,0.3,16,0.4,14,0.9,1
2020/4/18 5:58,0.4,1,0.4,14,0.6,7
2020/4/18 5:59,0.4,16,0.4,14,0.5,10
2020/4/18 6:00,0.4,15,0.4,14,0.4,8
2020/4/18 6:01,0.4,13,0.4,14,1.9,3
2020/4/18 6:02,0.3,2,0.4,14,0.4,16
2020/4/18 6:03,0.3,4,0.3,14,0.1,1
2020/4/18 6:04,0.2,4,0.3,14,0,4
2020/4/18 6:05,0.2,4,0.2,15,0.1,1
2020/4/18 6:06,0.2,4,0.2,16,0.5,2
2020/4/18 6:07,0.1,4,0.2,16,0.3,3
2020/4/18 6:08,0.1,3,0.1,1,0.1,5
2020/4/18 6:09,0.1,2,0.1,16,0.1,12
2020/4/18 6:10,0.1,1,0.1,15,0,16
2020/4/18 6:11,0.1,1,0.1,13,0.9,12
2020/4/18 6:12,0.2,16,0.2,3,0.9,12
2020/4/18 6:13,0.2,15,0.2,4,0.8,12
2020/4/18 6:14,0.3,14,0.3,15,0.6,12
2020/4/18 6:15,0.3,13,0.3,15,0,12
2020/4/18 6:16,0.2,12,0.3,15,0,10
2020/4/18 6:17,0.2,12,0.2,15,0,9
2020/4/18 6:18,0.2,11,0.2,15,0.1,8
2020/4/18 6:19,0.2,11,0.2,15,0.5,10
2020/4/18 6:20,0.3,10,0.3,15,1.1,9
2020/4/18 6:21,0.3,10,0.3,15,1,9
2020/4/18 6:22,0.3,10,0.3,15,1.1,10
2020/4/18 6:23,0.3,10,0.3,15,0.9,11
2020/4/18 6:24,0.3,10,0.3,14,1,13
2020/4/18 6:25,0.4,10,0.4,10,1.3,14
2020/4/18 6:26,0.5,11,0.5,10,1.4,15
2020/4/18 6:27,0.5,11,0.5,10,0.8,15
2020/4/18 6:28,0.6,12,0.6,12,0.9,15
2020/4/18 6:29,0.6,13,0.6,12,0.6,14
2020/4/18 6:30,0.7,13,0.7,13,0.6,14
2020/4/18 6:31,0.6,13,0.7,13,0.5,15
2020/4/18 6:32,0.6,13,0.6,13,0.6,13
2020/4/18 6:33,0.5,14,0.6,13,0.9,14
2020/4/18 6:34,0.6,14,0.6,13,1.3,14
2020/4/18 6:35,0.6,14,0.6,13,1.4,14
2020/4/18 6:36,0.6,14,0.6,13,1.1,14
2020/4/18 6:37,0.6,14,0.6,13,1.1,14
2020/4/18 6:38,0.6,14,0.6,13,1.1,15
2020/4/18 6:39,0.7,14,0.7,13,0.9,14
2020/4/18 6:40,0.6,14,0.7,13,0.8,15
2020/4/18 6:41,0.7,14,0.7,14,0.6,15
2020/4/18 6:42,0.7,14,0.7,14,0.9,15
2020/4/18 6:43,0.7,15,0.7,14,1.1,15
2020/4/18 6:44,0.7,15,0.7,14,1.6,15
2020/4/18 6:45,0.7,14,0.7,14,1.6,14
2020/4/18 6:46,0.7,14,0.7,14,1.5,13
2020/4/18 6:47,0.7,14,0.7,14,0.6,13
2020/4/18 6:48,0.6,14,0.7,14,0.6,13
2020/4/18 6:49,0.5,14,0.6,14,0.1,14
2020/4/18 6:50,0.5,15,0.5,14,0.1,16
2020/4/18 6:51,0.5,14,0.5,14,0.6,13
2020/4/18 6:52,0.5,14,0.5,14,0.6,12
2020/4/18 6:53,0.5,13,0.5,15,1,11
2020/4/18 6:54,0.4,13,0.5,15,0.6,11
2020/4/18 6:55,0.3,13,0.4,14,0,10
2020/4/18 6:56,0.2,12,0.3,14,0.1,10
2020/4/18 6:57,0.2,12,0.2,14,0.1,10
2020/4/18 6:58,0.2,11,0.2,14,0.1,10
2020/4/18 6:59,0.2,11,0.2,14,0.1,10
2020/4/18 7:00,0.2,11,0.2,14,0,10
2020/4/18 7:01,0.1,10,0.2,14,0,10
2020/4/18 7:02,0.1,10,0.1,14,0.5,10
2020/4/18 7:03,0.1,10,0.1,13,1.4,2
2020/4/18 7:04,0.1,10,0.1,13,1,2
2020/4/18 7:05,0.2,10,0.2,13,0.9,2
2020/4/18 7:06,0.3,9,0.3,9,1.4,2
2020/4/18 7:07,0.3,6,0.3,9,1.1,2
2020/4/18 7:08,0.4,3,0.4,3,1,3
2020/4/18 7:09,0.5,2,0.5,2,1.5,1
2020/4/18 7:10,0.6,2,0.6,2,1.8,2
2020/4/18 7:11,0.8,2,0.8,2,2.1,3
2020/4/18 7:12,0.9,2,0.9,2,2,3
2020/4/18 7:13,0.9,2,0.9,2,1.9,3
2020/4/18 7:14,0.9,2,0.9,2,1.3,2
2020/4/18 7:15,1,2,1,2,1.6,4
2020/4/18 7:16,1,3,1,2,1.6,3
2020/4/18 7:17,1,3,1,2,1.4,3
2020/4/18 7:18,1,3,1,2,1.3,2
2020/4/18 7:19,1,3,1.1,3,1.1,3
2020/4/18 7:20,0.9,3,1,3,0.9,4
2020/4/18 7:21,0.8,3,0.9,3,1,5
2020/4/18 7:22,0.7,3,0.8,3,1.4,6
2020/4/18 7:23,0.7,3,0.7,3,1.1,7
2020/4/18 7:24,0.8,4,0.8,3,1.6,7
2020/4/18 7:25,0.7,4,0.8,3,1.5,8
2020/4/18 7:26,0.7,4,0.7,3,0.5,16
2020/4/18 7:27,0.6,5,0.6,3,0.9,11
2020/4/18 7:28,0.6,6,0.6,3,1.4,10
2020/4/18 7:29,0.6,7,0.6,3,1.3,10
2020/4/18 7:30,0.7,8,0.7,3,1.5,11
2020/4/18 7:31,0.8,9,0.8,3,1.8,12
2020/4/18 7:32,0.8,10,0.8,4,1.5,10
2020/4/18 7:33,0.8,11,0.8,4,1,12
2020/4/18 7:34,0.8,11,0.8,4,2,9
2020/4/18 7:35,0.8,11,0.8,9,2.5,9
2020/4/18 7:36,1,11,1,11,4.1,10
2020/4/18 7:37,1.2,10,1.2,10,3.3,9
2020/4/18 7:38,1.3,10,1.3,10,3.5,10
2020/4/18 7:39,1.4,10,1.4,10,2.2,9
2020/4/18 7:40,1.4,10,1.4,10,2.9,9
2020/4/18 7:41,1.3,10,1.4,10,1.8,9
2020/4/18 7:42,1.3,10,1.3,10,1,9
2020/4/18 7:43,1.3,9,1.3,10,0.9,8
2020/4/18 7:44,1.2,9,1.3,10,0.4,7
2020/4/18 7:45,1.1,9,1.2,10,1.3,8
2020/4/18 7:46,1,9,1.1,10,2,9
2020/4/18 7:47,1,9,1,10,3.1,9
2020/4/18 7:48,0.9,9,1,10,3,9
2020/4/18 7:49,0.9,9,0.9,10,2.2,10
2020/4/18 7:50,0.9,9,0.9,10,2.5,9
2020/4/18 7:51,1.1,9,1.1,10,3.7,10
2020/4/18 7:52,1.2,10,1.2,10,3.5,9
2020/4/18 7:53,1.4,10,1.4,10,3.8,10
2020/4/18 7:54,1.6,9,1.6,10,3.5,9
2020/4/18 7:55,1.6,9,1.6,10,1.8,9
2020/4/18 7:56,1.6,10,1.6,10,2.1,11
2020/4/18 7:57,1.6,10,1.6,10,2.9,10
2020/4/18 7:58,1.6,9,1.6,10,2.9,9
2020/4/18 7:59,1.6,9,1.6,10,1.6,9
2020/4/18 8:00,1.6,10,1.6,10,2,10
2020/4/18 8:01,1.4,10,1.6,10,1.4,10
2020/4/18 8:02,1.4,10,1.4,10,1.3,12
2020/4/18 8:03,1.3,10,1.4,10,2.6,10
2020/4/18 8:04,1.3,10,1.3,9,2,9
2020/4/18 8:05,1.3,10,1.3,9,2,10
2020/4/18 8:06,1.3,10,1.3,10,2.5,10
2020/4/18 8:07,1.3,11,1.4,10,3,11
2020/4/18 8:08,1.4,11,1.4,9,2.9,10
2020/4/18 8:09,1.5,11,1.5,9,2.9,10
2020/4/18 8:10,1.5,11,1.5,10,2.1,9
2020/4/18 8:11,1.5,10,1.5,11,1.9,9
2020/4/18 8:12,1.5,10,1.5,11,1.6,10
2020/4/18 8:13,1.5,10,1.5,11,2.1,10
2020/4/18 8:14,1.4,10,1.5,11,1.3,12
2020/4/18 8:15,1.4,10,1.5,11,2,9
2020/4/18 8:16,1.3,10,1.3,11,1.3,9
2020/4/18 8:17,1.3,10,1.3,11,2.6,10
2020/4/18 8:18,1.2,10,1.3,11,1.9,10
2020/4/18 8:19,1.2,10,1.2,11,2.6,10
2020/4/18 8:20,1.1,10,1.2,11,1.9,9
2020/4/18 8:21,1.1,10,1.1,10,1.6,9
2020/4/18 8:22,1.2,10,1.2,10,2,10
2020/4/18 8:23,1.2,10,1.2,10,2.2,10
2020/4/18 8:24,1.2,11,1.2,10,1.6,11
2020/4/18 8:25,1.3,11,1.3,10,1.6,11
2020/4/18 8:26,1.3,11,1.3,10,1.5,11
2020/4/18 8:27,1.2,10,1.3,10,1.1,9
2020/4/18 8:28,1.1,10,1.2,11,1.6,8
2020/4/18 8:29,1,10,1.1,11,1.6,8
2020/4/18 8:30,1,10,1,11,1.6,10
2020/4/18 8:31,1.1,10,1.1,11,1.9,10
2020/4/18 8:32,1,10,1.1,11,1.1,8
2020/4/18 8:33,0.8,10,1,11,0.8,9
2020/4/18 8:34,0.8,9,0.8,11,2.1,9
2020/4/18 8:35,0.9,9,0.9,11,2.4,9
2020/4/18 8:36,0.9,9,0.9,11,1.8,12
2020/4/18 8:37,0.9,9,0.9,10,1.8,12
2020/4/18 8:38,0.9,10,1,10,1.6,13
2020/4/18 8:39,1,10,1,10,2.1,13
2020/4/18 8:40,1,10,1,10,1.6,11
2020/4/18 8:41,1,11,1,10,1.5,11
2020/4/18 8:42,1,11,1,10,1.6,9
2020/4/18 8:43,1,11,1,10,1.6,9
2020/4/18 8:44,1,11,1,10,2.7,9
2020/4/18 8:45,0.9,11,1,10,2.7,10
2020/4/18 8:46,0.9,11,0.9,10,1.4,11
2020/4/18 8:47,1,11,1,10,2.7,10
2020/4/18 8:48,1.1,11,1.1,11,3.7,11
2020/4/18 8:49,1.2,10,1.2,11,3,10
2020/4/18 8:50,1.3,10,1.3,10,3.1,11
2020/4/18 8:51,1.4,10,1.4,10,3.7,10
2020/4/18 8:52,1.5,10,1.5,10,3.9,9
2020/4/18 8:53,1.6,10,1.6,10,2.9,8
2020/4/18 8:54,1.6,10,1.6,10,3.7,9
2020/4/18 8:55,1.7,10,1.7,10,2.9,9
2020/4/18 8:56,1.8,10,1.8,10,5.6,10
2020/4/18 8:57,2.1,10,2.1,10,6,10
2020/4/18 8:58,2.2,10,2.2,10,5.2,11
2020/4/18 8:59,2.3,10,2.3,10,4.4,11
2020/4/18 9:00,2.4,10,2.4,10,5.4,11
2020/4/18 9:01,2.4,10,2.4,10,3.8,10
2020/4/18 9:02,2.5,10,2.5,10,4.7,10
2020/4/18 9:03,2.5,11,2.5,10,2.9,9
2020/4/18 9:04,2.5,11,2.5,10,2.7,11
2020/4/18 9:05,2.6,11,2.6,11,3.9,11
2020/4/18 9:06,2.6,11,2.6,11,5.1,11
2020/4/18 9:07,2.4,11,2.5,11,3.5,9
2020/4/18 9:08,2.2,11,2.4,11,2.9,8
2020/4/18 9:09,2.2,11,2.2,11,4.7,10
2020/4/18 9:10,2.2,11,2.2,11,5.2,11
2020/4/18 9:11,2.2,11,2.2,11,4.8,10
2020/4/18 9:12,2.3,11,2.3,11,6.7,9
2020/4/18 9:13,2.6,10,2.6,11,5.2,10
2020/4/18 9:14,2.7,10,2.7,10,5,10
2020/4/18 9:15,2.7,10,2.8,10,4.8,10
2020/4/18 9:16,2.7,10,2.7,10,3.2,11
2020/4/18 9:17,2.6,11,2.7,10,2.2,13
2020/4/18 9:18,2.7,11,2.7,10,3.8,13
2020/4/18 9:19,2.7,11,2.8,10,3.7,13
2020/4/18 9:20,2.7,11,2.7,10,5.7,11
2020/4/18 9:21,2.6,11,2.7,10,3.9,10
2020/4/18 9:22,2.5,12,2.6,10,5.1,13
2020/4/18 9:23,2.3,12,2.5,10,3.8,10
2020/4/18 9:24,2.2,12,2.3,10,4.4,11
2020/4/18 9:25,2.1,12,2.2,11,3.2,13
2020/4/18 9:26,2.3,12,2.3,11,5,11
2020/4/18 9:27,2.4,12,2.4,11,5.5,11
2020/4/18 9:28,2.3,12,2.4,11,4.7,9
2020/4/18 9:29,2.4,11,2.4,11,6.9,9
2020/4/18 9:30,2.5,11,2.5,11,7.1,9
2020/4/18 9:31,2.9,11,2.9,11,7.4,10
2020/4/18 9:32,3.1,11,3.1,11,6.9,10
2020/4/18 9:33,3.2,11,3.2,11,6.1,11
2020/4/18 9:34,3.4,10,3.4,10,6.5,11
2020/4/18 9:35,3.5,10,3.5,10,5,10
2020/4/18 9:36,3.6,10,3.6,10,5.4,11
2020/4/18 9:37,3.6,10,3.6,10,4.4,9
2020/4/18 9:38,3.8,10,3.8,10,6,10
2020/4/18 9:39,4,10,4,10,7.5,10
2020/4/18 9:40,3.9,10,4,10,6.5,10
2020/4/18 9:41,3.7,10,3.9,10,6.1,10
2020/4/18 9:42,3.5,10,3.6,10,5,9
2020/4/18 9:43,3.5,10,3.6,10,4.3,11
2020/4/18 9:44,3.2,10,3.5,10,2.4,9
2020/4/18 9:45,3.1,10,3.2,10,5.5,10
2020/4/18 9:46,3,10,3.1,10,4.3,13
2020/4/18 9:47,2.8,11,3,10,2.2,11
2020/4/18 9:48,2.6,11,2.8,10,3.6,12
2020/4/18 9:49,2.6,11,2.6,10,6.4,10
2020/4/18 9:50,2.6,11,2.6,10,7.9,10
2020/4/18 9:51,2.6,11,2.6,10,6,10
2020/4/18 9:52,2.6,11,2.6,10,4.8,12
2020/4/18 9:53,2.6,11,2.6,10,6,10
2020/4/18 9:54,2.8,11,2.8,10,6,10
2020/4/18 9:55,2.9,11,2.9,10,5.7,11
2020/4/18 9:56,3,11,3,11,4.7,12
2020/4/18 9:57,3.1,11,3.1,11,3.6,12
2020/4/18 9:58,3.2,11,3.2,11,4.8,11
2020/4/18 9:59,3,11,3.2,11,4.7,11
2020/4/18 10:00,2.9,11,3,11,4.3,9
2020/4/18 10:01,2.8,11,3,11,4.1,10
2020/4/18 10:02,2.8,10,2.8,11,4.7,10
2020/4/18 10:03,2.8,11,2.9,11,3.6,10
2020/4/18 10:04,2.6,11,2.7,11,3.7,11
2020/4/18 10:05,2.5,10,2.5,11,4.3,10
2020/4/18 10:06,2.4,10,2.5,11,5.1,11
2020/4/18 10:07,2.4,10,2.5,11,4.4,10
2020/4/18 10:08,2.5,10,2.5,11,6,11
2020/4/18 10:09,2.4,10,2.4,11,3.7,9
2020/4/18 10:10,2.3,10,2.4,11,5.1,9
2020/4/18 10:11,2.4,10,2.4,10,4.7,10
2020/4/18 10:12,2.6,10,2.6,10,6,10
2020/4/18 10:13,2.7,10,2.7,11,4.7,12
2020/4/18 10:14,2.8,10,2.8,10,5,10
2020/4/18 10:15,2.9,10,2.9,10,6.4,10
2020/4/18 10:16,3,10,3,10,7,10
2020/4/18 10:17,3,10,3,10,5.1,10
2020/4/18 10:18,3,10,3.1,10,4.5,11
2020/4/18 10:19,3.1,10,3.1,10,4.3,9
2020/4/18 10:20,3.1,10,3.1,10,4.3,10
2020/4/18 10:21,3.1,10,3.2,10,5.5,10
2020/4/18 10:22,3.1,10,3.1,10,5.2,10
2020/4/18 10:23,3.1,10,3.1,10,5.8,12
2020/4/18 10:24,3.1,10,3.2,10,5.6,10
2020/4/18 10:25,3,10,3.1,10,6.2,9
2020/4/18 10:26,3,10,3,10,5.8,10
2020/4/18 10:27,3,10,3,10,5.5,9
2020/4/18 10:28,3.1,10,3.1,10,5.5,11
2020/4/18 10:29,3,10,3.1,10,5.2,9
2020/4/18 10:30,3,10,3,10,3.7,10
2020/4/18 10:31,3,10,3,10,4.2,11
2020/4/18 10:32,3,10,3.1,10,7.9,9
2020/4/18 10:33,3,10,3,10,7,10
2020/4/18 10:34,3.2,10,3.2,10,6.5,9
2020/4/18 10:35,3.2,10,3.2,10,5.6,7
2020/4/18 10:36,3.2,10,3.2,10,6.2,9
2020/4/18 10:37,3.3,10,3.3,10,6,10
2020/4/18 10:38,3.3,10,3.3,10,6.2,9
2020/4/18 10:39,3.4,10,3.4,10,6.8,11
2020/4/18 10:40,3.7,10,3.7,10,5.8,11
2020/4/18 10:41,3.7,10,3.7,10,6.7,9
2020/4/18 10:42,3.7,10,3.7,10,5.6,10
2020/4/18 10:43,3.7,10,3.8,10,6.3,10
2020/4/18 10:44,3.7,10,3.8,10,6.4,10
2020/4/18 10:45,3.8,10,3.8,10,6,11
2020/4/18 10:46,3.8,10,3.9,10,7.1,11
2020/4/18 10:47,3.9,10,3.9,10,8.9,11
2020/4/18 10:48,4.2,11,4.2,10,11.6,10
2020/4/18 10:49,4.3,10,4.4,11,8.9,9
2020/4/18 10:50,4.1,10,4.3,11,6.4,9
2020/4/18 10:51,4.2,10,4.2,11,6.9,9
2020/4/18 10:52,4.2,10,4.2,11,9,10
2020/4/18 10:53,4.3,10,4.3,11,10.8,9
2020/4/18 10:54,4.3,10,4.3,11,9.7,9
2020/4/18 10:55,4.4,10,4.4,11,7.8,10
2020/4/18 10:56,4.2,10,4.4,11,6.9,9
2020/4/18 10:57,4,10,4.3,11,5.1,12
2020/4/18 10:58,3.7,10,4,11,6.8,9
2020/4/18 10:59,3.7,10,3.7,10,9.1,9
2020/4/18 11:00,4,10,4,10,7.8,10
2020/4/18 11:01,4.2,10,4.2,10,9.1,11
2020/4/18 11:02,4.1,10,4.3,10,8.1,10
2020/4/18 11:03,4,10,4.1,10,7.5,11
2020/4/18 11:04,3.9,10,4,10,6.3,11
2020/4/18 11:05,3.7,10,3.8,10,4.9,8
2020/4/18 11:06,3.7,10,3.8,10,4.3,9
2020/4/18 11:07,4,10,4,10,7,10
2020/4/18 11:08,4,10,4,10,7.4,11
2020/4/18 11:09,3.9,11,4,10,8.2,9
2020/4/18 11:10,4,11,4,10,11,9
2020/4/18 11:11,3.9,11,4.1,10,8.4,10
2020/4/18 11:12,3.9,11,3.9,10,8.5,11
2020/4/18 11:13,3.9,11,4,11,6.1,11
2020/4/18 11:14,3.9,11,3.9,11,7,10
2020/4/18 11:15,4.1,11,4.1,11,9.5,11
2020/4/18 11:16,4.3,11,4.3,11,7.9,12
2020/4/18 11:17,4.3,11,4.3,11,6.4,12
2020/4/18 11:18,4.4,11,4.4,11,8.2,13
2020/4/18 11:19,4.7,11,4.7,11,11.5,13
2020/4/18 11:20,4.4,12,4.7,11,5.2,12